Погода в Бесленее

Россия / Карачаево-Черкесская Республика     44°14′38″N   41°44′21″E
темп.,
°C
ветер,
м/с
пор.,
м/с
влажн.,
%
обл.,
%
осадки,
мм/ч
давл.,
гПа
погр.,
м
15 мая, сб
сб1500:00+15ююз345844 0.0 101345
03:00+15ююз444988 0.0 101341
06:00+14ююз34640 0.0 101443
09:00+22зсз11580 0.0 1014379
12:00+24с32635 0.0 1014869
15:00+25св55644 0.0 10131112
18:00+22ссв3478100 1.8 1013114
21:00+18ююв2289100 3.4 101318
16 мая, вс
вс1600:00+14ю338412 0.0 101240
03:00+13ю33828 0.0 101130
06:00+14ююз33814 0.1 101157
09:00+21в126364 0.1 1009416
12:00+24в4461100 0.0 10081100
15:00+26в66605 0.0 10061378
18:00+23всв5978100 0.1 1006457
21:00+16ю4574100 0.2 100671
17 мая, пн
пн1700:00+15ююв337616 0.0 100539
03:00+14ю44720 0.0 100544
06:00+15ююз34738 0.0 100552
09:00+23з12544 0.0 1005339
12:00+25ссз446387 0.0 1006958
15:00+18зсз61092100 16.4 1010412
18:00+18юз1386100 1.5 1010267
21:00+15с0191100 1.5 101210
18 мая, вт
вт1800:00+14юз229287 0.1 101125
03:00+13з229590 0.7 101125
06:00+14ю2298100 3.2 1013145
09:00+15зсз588814 18.4 1014655
12:00+18зсз457240 0.1 10151107
15:00+20сз456667 0.1 10141183
18:00+18сз238297 0.7 1015625
21:00+13юз119341 2.3 101711
19 мая, ср
ср1900:00+12ююз22930 0.0 101614
03:00+12ююв22920 0.0 101713
06:00+13ююв22900 0.0 101763
09:00+18в35730 0.0 1016639
12:00+22в56630 0.0 10141079
15:00+23в67625 0.0 10121184
18:00+20в611749 0.0 1012562
21:00+16в410780 0.0 1012240